Weather Roundup
Issued by NWS

Home | Current Version | Previous Version | Graphics & Text | Print | Product List | Glossary Off
Versions: 1 2 3 4 5 6 7 8 9 10 11 12 13 14 15 16 17 18 19 20 21 22 23 24 25 26 27 28 29 30 31 32 33 34 35 36 37 38 39 40 41 42 43 44 45 46 47 48 49 50

000
NZUS93 KARX 282310
HRRWXR

CURRENT HOURLY OBSERVATIONS ACROSS
MUCH OF THE UPPER MISSISSIPPI VALLEY
NATIONAL WEATHER SERVICE LA CROSSE WI
600 PM CDT SAT MAY 28 2016


...SOUTHEAST MINNESOTA...


CITY           SKY/WX    TMP DP  RH WIND       PRES   REMARKS
ROCHESTER      LGT RAIN  64  59  83 W8        29.79S
ROCHESTER/MAYO CLOUDY    66  59  77 W8        29.78S
WINONA         HVY RAIN  70  64  83 S5        29.77R
AUSTIN         CLOUDY    64  57  77 CALM      29.78S
ALBERT LEA     PTSUNNY   66  61  82 CALM      29.76F
DODGE CENTER   CLOUDY    63  63 100 W6        29.78F
PRESTON        PTSUNNY   66  58  74 W14       29.78R
OWATONNA       MOSUNNY   66  61  82 SE5       29.76F
FARIBAULT      MOSUNNY   66  63  88 E2        29.77F
$$

...ELSEWHERE IN MINNESOTA...


CITY           SKY/WX    TMP DP  RH WIND       PRES   REMARKS
MINNEAPOLIS    CLOUDY    66  59  78 VRB5      29.77S
INTNL FALLS    LGT RAIN  59  58  96 NE5       29.81R VSB 1/2
DULUTH         LGT RAIN  55  53  93 SE5       29.80R
RED WING       LGT RAIN  66  64  94 W3        29.76S
REDWOOD FALLS  CLOUDY    67  59  75 N7        29.79R
MANKATO        CLOUDY    66  61  82 NW5       29.77R
WORTHINGTON    CLOUDY    65  59  81 NE14      29.80R
FAIRMONT       CLOUDY    63  59  88 CALM      29.78F
$$

...SOUTHWEST WISCONSIN...


CITY           SKY/WX    TMP DP  RH WIND       PRES   REMARKS
LA CROSSE      CLOUDY    70  65  84 S9        29.75F
PRAIRIE DU CHI CLOUDY    68  62  80 CALM      29.79R
BOSCOBEL       CLOUDY    72  65  78 VRB5      29.78F
LONE ROCK      CLOUDY    69  63  81 S9        29.80R
PLATTEVILLE    CLOUDY    69  65  89 SE7       29.81S
FORT MC COY    CLOUDY    75  62  63 SW3       29.78S
CAMP DOUGLAS   LGT RAIN  75  70  83 S3        29.78R
MAUSTON-NEW LI CLOUDY    76  64  65 SW3       29.78S
VIROQUA        CLOUDY    67  64  87 CALM      29.80S
WIS DELLS      LGT RAIN  76  61  60 S10       29.78F
$$

...ELSEWHERE IN WISCONSIN...


CITY           SKY/WX    TMP DP  RH WIND       PRES   REMARKS
MILWAUKEE      MOSUNNY   78  62  57 SE12G21   29.85F
MADISON        PTSUNNY   81  60  48 S18G25    29.78F
GREEN BAY      MOSUNNY   81  64  56 S14       29.80S
EAU CLAIRE     CLOUDY    75  61  61 S8        29.74S
BLACK RVR FLS  FAIR      76  58  53 S7        29.76S
MEDFORD        MOSUNNY   74  62  66 SW9       29.79S
WAUSAU         SUNNY     77  59  53 S13G20    29.78S
WIS RAPIDS     CLOUDY    77  59  53 SW6       29.80S
MARSHFIELD     MOSUNNY   76  60  57 S13       29.79R
RICE LAKE      CLOUDY    68  62  80 CALM      29.77F
$$

...NORTHEAST IOWA...


CITY           SKY/WX    TMP DP  RH WIND       PRES   REMARKS
WATERLOO       PTSUNNY   71  61  70 SW16G24   29.78R
DUBUQUE        CLOUDY    72  66  81 SW14      29.80S
DECORAH        MOSUNNY   68  64  88 S9G16     29.77F
MASON CITY     CLOUDY    65  62  90 SE7       29.79R
CHARLES CITY   CLOUDY    70  64  83 SW10      29.79R
OELWEIN        CLOUDY    68  64  88 SW13      29.80S
$$

...ELSEWHERE IN IOWA...


CITY           SKY/WX    TMP DP  RH WIND       PRES   REMARKS
DES MOINES     MOSUNNY   75  59  57 SW15G24   29.80R
IOWA CITY      MOSUNNY   78  59  51 SW18G28   29.82R
FORT DODGE     CLOUDY    73  57  56 SW12G17   29.77S
MARSHALLTOWN   CLOUDY    70  62  76 SW17G25   29.79R
CEDAR RAPIDS   LGT RAIN  73  63  70 SW18G29   29.80R
$$

...NORTHERN ILLINOIS...


CITY           SKY/WX    TMP DP  RH WIND       PRES   REMARKS
CHICAGO-OHARE  MOSUNNY   81  66  60 S20G28    29.87F
CHICAGO-MIDWAY MOSUNNY   83  63  50 S20G31    29.88F
MOLINE         CLOUDY    75  68  78 S6        29.82S
ROCKFORD       MOSUNNY   85  58  39 S25G32    29.84F
PEORIA         PTSUNNY   83  62  49 S23G32    29.86R
$$

NOTE: "FAIR" INDICATES FEW OR NO CLOUDS BELOW 12,000 FEET WITH NO
SIGNIFICANT WEATHER AND/OR OBSTRUCTIONS TO VISIBILITY. WIND
SPEEDS ARE IN MILES-PER-HOUR.




USA.gov is the U.S. government's official web portal to all federal, state and local government web resources and services.